Regional Weather Roundup
Issued by NWS Jackson, KY

Home | Current Version | Previous Version | Text Only | Print | Product List | Glossary On
Versions: 1 2 3 4 5 6 7 8 9 10 11 12 13 14 15 16 17 18 19 20 21 22 23 24 25 26 27 28 29 30 31 32 33 34 35 36 37 38 39 40 41 42 43 44 45 46 47
000
ASUS43 KJKL 271010
RWRJKL

EAST KENTUCKY HOURLY WEATHER ROUNDUP
NATIONAL WEATHER SERVICE JACKSON KY
600 AM EDT MON APR 27 2015

NOTE: "FAIR" INDICATES FEW OR NO CLOUDS BELOW 12,000 FEET WITH
NO SIGNIFICANT WEATHER AND/OR OBSTRUCTIONS TO VISIBILITY.

* THESE REPORTS ARE NOT UNDER NWS QUALITY CONTROL AND MAY NOT
  REPORT WEATHER SUCH AS PRECIPITATION AND FOG.

KYZ079-080-083-085-087-088-110-112-115-119-120-271100
...EASTERN KENTUCKY...

CITY           SKY/WX    TMP DP  RH WIND       PRES   REMARKS
JACKSON        CLEAR     43  30  60 VRB5      29.89R
LONDON         PTCLDY    40  33  76 N3        29.90R
SOMERSET*      MOCLDY    41  34  75 N3        29.93R
MONTICELLO*    CLEAR     36  36 100 CALM      29.95R
MIDDLESBORO*   FOG       37  37 100 CALM      29.90R VSB 1/4
HARLAN APT*    CLOUDY    37  37 100 CALM      29.87S VSB<1/4
HAZARD APT*    SUNNY     41  34  75 NW3       29.89R
BLACK MTN*       N/A     32  30  93 N9          N/A  WCI  24
PIKEVILLE APT* CLEAR     43  32  65 N6        29.87R
BIG SANDY*     SUNNY     43  32  66 N3        29.88R
MOREHEAD APT*  SUNNY     37  32  81 CALM      29.93R
$$

KYZ035-036-041-042-044-050-067-078-099-271100
...CENTRAL KENTUCKY...

CITY           SKY/WX    TMP DP  RH WIND       PRES   REMARKS
MT STERLING*   CLEAR     34  34 100 CALM      29.93R
FLEMING/MASON* CLEAR     39  32  75 N5        29.93R
DANVILLE*      CLEAR     36  34  93 N5        29.93R WCI  32
RICHMOND*      CLEAR     41  34  75 CALM      29.91R
LEXINGTON      CLEAR     39  34  82 NW3       29.93R
FRANKFORT      CLEAR     37  33  85 CALM      29.92R
$$

KYZ091>093-OHZ055-061-077-WVZ005-015-034-035-042-271100
...SOUTHERN OHIO/WEST VIRGINIA...

CITY           SKY/WX    TMP DP  RH WIND       PRES   REMARKS
COVINGTON      CLEAR     37  33  85 W6        29.91S WCI  32
COLUMBUS       CLEAR     37  31  78 N6        29.90R WCI  32
DAYTON         CLEAR     42  32  67 E6        29.91S
WILMINGTON     CLEAR     35  29  78 N3        29.91R
HUNTINGTON     CLEAR     39  31  72 CALM      29.89R
CHARLESTON     CLEAR     39  32  76 SW3       29.87R
PINEVILLE*     FOG       36  36 100 MISG      29.89S VSB 1/2
BECKLEY        CLEAR     36  28  73 CALM      29.81S
BLUEFIELD      CLOUDY    38  34  85 W6        29.82R WCI  33
$$

VAZ002-007-008-TNZ017-027-036-066-071-271100
...SOUTHWEST VIRGINIA/EAST TENNESSEE...

CITY           SKY/WX    TMP DP  RH WIND       PRES   REMARKS
WISE*          PTCLDY    39  32  75 NW6       29.85R WCI  35
JONESVILLE*    SUNNY     45  36  70 CALM      29.89R
ABINGDON*      CLEAR     41  38  87 CALM      29.83R
BRISTOL        PTCLDY    41  38  89 CALM      29.85R
KNOXVILLE      PTCLDY    47  39  74 N8        29.86S
OAK RIDGE      CLEAR     43  40  89 CALM      29.89R
CROSSVILLE     CLEAR     43  37  79 N3        29.89S
NASHVILLE      CLEAR     44  38  79 N7        29.93R
$$

...KEY TO REMARKS...
VSB - VISIBILITY IN MILES
WCI - WIND CHILL INDEX
HX  - HEAT INDEX

$$


USA.gov is the U.S. government's official web portal to all federal, state and local government web resources and services.